Time,TemperatureF,DewpointF,PressureIn,WindDirection,WindDirectionDegrees,WindSpeedMPH,WindSpeedGustMPH,Humidity,HourlyPrecipIn,Conditions,Clouds,dailyrainin,SolarRadiationWatts/m^2,SoftwareType,DateUTC
2013-10-15 00:02:00,36.0,35.0,-100.00,NNW,330,4.0,9.0,97,0.00,,,0.42,0.000000,,2013-10-15 06:02:00,
2013-10-15 00:12:00,36.0,35.0,-100.00,NNW,330,4.0,9.0,97,0.00,,,0.42,0.000000,,2013-10-15 06:12:00,
2013-10-15 00:22:00,36.0,35.0,-100.00,NNW,330,4.0,9.0,97,0.00,,,0.42,0.000000,,2013-10-15 06:22:00,
2013-10-15 00:52:00,35.0,33.0,-100.00,NNW,334,3.0,9.0,94,0.00,,,0.40,0.000000,,2013-10-15 06:52:00,
2013-10-15 01:02:00,35.0,33.0,-100.00,NNW,334,3.0,9.0,94,0.00,,,0.40,0.000000,,2013-10-15 07:02:00,
2013-10-15 01:12:00,35.0,33.0,-100.00,NNW,334,3.0,9.0,94,0.00,,,0.40,0.000000,,2013-10-15 07:12:00,
2013-10-15 01:22:00,35.0,33.0,-100.00,NNW,334,3.0,9.0,94,0.00,,,0.40,0.000000,,2013-10-15 07:22:00,
2013-10-15 01:53:00,36.0,35.0,-100.00,WNW,286,2.0,6.0,98,0.00,,,0.38,0.000000,,2013-10-15 07:53:00,
2013-10-15 02:02:00,36.0,35.0,-100.00,WNW,286,2.0,6.0,98,0.00,,,0.38,0.000000,,2013-10-15 08:02:00,
2013-10-15 02:12:00,36.0,35.0,-100.00,WNW,286,2.0,6.0,98,0.00,,,0.38,0.000000,,2013-10-15 08:12:00,
2013-10-15 02:21:00,36.0,35.0,-100.00,WNW,286,2.0,6.0,98,0.00,,,0.38,0.000000,,2013-10-15 08:21:00,
2013-10-15 02:52:00,34.0,33.0,-100.00,WNW,292,2.0,7.0,95,0.00,,,0.36,0.000000,,2013-10-15 08:52:00,
2013-10-15 03:02:00,34.0,33.0,-100.00,WNW,292,2.0,7.0,95,0.00,,,0.36,0.000000,,2013-10-15 09:02:00,
2013-10-15 03:12:00,34.0,33.0,-100.00,WNW,292,2.0,7.0,95,0.00,,,0.36,0.000000,,2013-10-15 09:12:00,
2013-10-15 03:22:00,34.0,33.0,-100.00,WNW,292,2.0,7.0,95,0.00,,,0.36,0.000000,,2013-10-15 09:22:00,
2013-10-15 03:53:00,33.0,32.0,-100.00,WNW,285,2.0,5.0,95,0.00,,,0.36,0.000000,,2013-10-15 09:53:00,
2013-10-15 04:03:00,33.0,32.0,-100.00,WNW,285,2.0,5.0,95,0.00,,,0.36,0.000000,,2013-10-15 10:03:00,
2013-10-15 04:13:00,33.0,32.0,-100.00,WNW,285,2.0,5.0,95,0.00,,,0.36,0.000000,,2013-10-15 10:13:00,
2013-10-15 04:23:00,33.0,32.0,-100.00,WNW,285,2.0,5.0,95,0.00,,,0.36,0.000000,,2013-10-15 10:23:00,
2013-10-15 04:53:00,33.0,30.0,-100.00,WNW,293,2.0,6.0,90,0.00,,,0.34,0.000000,,2013-10-15 10:53:00,
2013-10-15 05:02:00,33.0,30.0,-100.00,WNW,293,2.0,6.0,90,0.00,,,0.34,0.000000,,2013-10-15 11:02:00,
2013-10-15 05:11:00,33.0,30.0,-100.00,WNW,293,2.0,6.0,90,0.00,,,0.34,0.000000,,2013-10-15 11:11:00,
2013-10-15 05:22:00,33.0,30.0,-100.00,WNW,293,2.0,6.0,90,0.00,,,0.34,0.000000,,2013-10-15 11:22:00,
2013-10-15 05:53:00,33.0,30.0,-100.00,WNW,293,3.0,7.0,90,0.00,,,0.33,0.000000,,2013-10-15 11:53:00,
2013-10-15 06:01:00,33.0,30.0,-100.00,WNW,293,3.0,7.0,90,0.00,,,0.33,0.000000,,2013-10-15 12:01:00,
2013-10-15 06:12:00,33.0,30.0,-100.00,WNW,293,3.0,7.0,90,0.00,,,0.33,0.000000,,2013-10-15 12:12:00,
2013-10-15 06:22:00,33.0,30.0,-100.00,WNW,293,3.0,7.0,90,0.00,,,0.33,0.000000,,2013-10-15 12:22:00,
2013-10-15 06:52:00,31.0,28.0,-100.00,WNW,297,2.0,6.0,90,0.00,,,0.31,0.000000,,2013-10-15 12:52:00,
2013-10-15 07:02:00,31.0,28.0,-100.00,WNW,297,2.0,6.0,90,0.00,,,0.31,0.000000,,2013-10-15 13:02:00,
2013-10-15 07:11:00,31.0,28.0,-100.00,WNW,297,2.0,6.0,90,0.00,,,0.31,0.000000,,2013-10-15 13:11:00,
2013-10-15 07:21:00,31.0,28.0,-100.00,WNW,297,2.0,6.0,90,0.00,,,0.31,0.000000,,2013-10-15 13:21:00,
2013-10-15 07:52:00,30.0,28.0,-100.00,WNW,294,3.0,7.0,92,0.00,,,0.29,0.000000,,2013-10-15 13:52:00,
2013-10-15 08:02:00,30.0,28.0,-100.00,WNW,294,3.0,7.0,92,0.00,,,0.29,0.000000,,2013-10-15 14:02:00,
2013-10-15 08:12:00,30.0,28.0,-100.00,WNW,294,3.0,7.0,92,0.00,,,0.29,0.000000,,2013-10-15 14:12:00,
2013-10-15 08:22:00,30.0,28.0,-100.00,WNW,294,3.0,7.0,92,0.00,,,0.29,0.000000,,2013-10-15 14:22:00,
2013-10-15 08:52:00,33.0,29.0,-100.00,WNW,296,3.0,6.0,85,0.00,,,0.26,38.000000,,2013-10-15 14:52:00,
2013-10-15 09:02:00,33.0,29.0,-100.00,WNW,296,3.0,6.0,85,0.00,,,0.26,38.000000,,2013-10-15 15:02:00,
2013-10-15 09:11:00,33.0,29.0,-100.00,WNW,296,3.0,6.0,85,0.00,,,0.26,38.000000,,2013-10-15 15:11:00,
2013-10-15 09:22:00,33.0,29.0,-100.00,WNW,296,3.0,6.0,85,0.00,,,0.26,38.000000,,2013-10-15 15:22:00,
2013-10-15 09:53:00,38.0,30.0,-100.00,NW,317,4.0,7.0,72,0.00,,,0.22,192.000000,,2013-10-15 15:53:00,
2013-10-15 10:03:00,38.0,30.0,-100.00,NW,317,4.0,7.0,72,0.00,,,0.22,192.000000,,2013-10-15 16:03:00,
2013-10-15 10:13:00,38.0,30.0,-100.00,NW,317,4.0,7.0,72,0.00,,,0.22,192.000000,,2013-10-15 16:13:00,
2013-10-15 10:23:00,38.0,30.0,-100.00,NW,317,4.0,7.0,72,0.00,,,0.22,192.000000,,2013-10-15 16:23:00,
2013-10-15 10:53:00,45.0,32.0,-100.00,NW,320,3.0,8.0,61,0.00,,,0.19,407.000000,,2013-10-15 16:53:00,
2013-10-15 11:02:00,45.0,32.0,-100.00,NW,320,3.0,8.0,61,0.00,,,0.19,407.000000,,2013-10-15 17:02:00,
2013-10-15 11:12:00,45.0,32.0,-100.00,NW,320,3.0,8.0,61,0.00,,,0.19,407.000000,,2013-10-15 17:12:00,
2013-10-15 11:22:00,45.0,32.0,-100.00,NW,320,3.0,8.0,61,0.00,,,0.19,407.000000,,2013-10-15 17:22:00,
2013-10-15 11:53:00,50.0,34.0,-100.00,NNW,331,4.0,8.0,54,0.00,,,0.15,560.000000,,2013-10-15 17:53:00,
2013-10-15 12:02:00,50.0,34.0,-100.00,NNW,331,4.0,8.0,54,0.00,,,0.15,560.000000,,2013-10-15 18:02:00,
2013-10-15 12:12:00,50.0,34.0,-100.00,NNW,331,4.0,8.0,54,0.00,,,0.15,560.000000,,2013-10-15 18:12:00,
2013-10-15 12:21:00,50.0,34.0,-100.00,NNW,331,4.0,8.0,54,0.00,,,0.15,560.000000,,2013-10-15 18:21:00,
2013-10-15 12:52:00,50.0,29.0,-100.00,North,352,5.0,12.0,44,0.00,,,0.11,665.000000,,2013-10-15 18:52:00,
2013-10-15 13:01:00,50.0,29.0,-100.00,North,352,5.0,12.0,44,0.00,,,0.11,665.000000,,2013-10-15 19:01:00,
2013-10-15 13:12:00,50.0,29.0,-100.00,North,352,5.0,12.0,44,0.00,,,0.11,665.000000,,2013-10-15 19:12:00,
2013-10-15 13:22:00,50.0,29.0,-100.00,North,352,5.0,12.0,44,0.00,,,0.11,665.000000,,2013-10-15 19:22:00,
2013-10-15 13:52:00,54.0,30.0,-100.00,NW,322,4.0,14.0,39,0.00,,,0.09,689.000000,,2013-10-15 19:52:00,
2013-10-15 14:03:00,54.0,30.0,-100.00,NW,322,4.0,14.0,39,0.00,,,0.09,689.000000,,2013-10-15 20:03:00,
2013-10-15 14:12:00,54.0,30.0,-100.00,NW,322,4.0,14.0,39,0.00,,,0.09,689.000000,,2013-10-15 20:12:00,
2013-10-15 14:22:00,54.0,30.0,-100.00,NW,322,4.0,14.0,39,0.00,,,0.09,689.000000,,2013-10-15 20:22:00,
2013-10-15 14:52:00,52.0,27.0,-100.00,NNW,341,5.0,13.0,38,0.00,,,0.08,649.000000,,2013-10-15 20:52:00,
2013-10-15 15:02:00,52.0,27.0,-100.00,NNW,341,5.0,13.0,38,0.00,,,0.08,649.000000,,2013-10-15 21:02:00,
2013-10-15 15:13:00,52.0,27.0,-100.00,NNW,341,5.0,13.0,38,0.00,,,0.08,649.000000,,2013-10-15 21:13:00,
2013-10-15 15:22:00,52.0,27.0,-100.00,NNW,341,5.0,13.0,38,0.00,,,0.08,649.000000,,2013-10-15 21:22:00,
2013-10-15 15:54:00,56.0,27.0,-100.00,WNW,300,5.0,11.0,33,0.00,,,0.07,550.000000,,2013-10-15 21:54:00,
2013-10-15 16:04:00,56.0,27.0,-100.00,WNW,300,5.0,11.0,33,0.00,,,0.07,550.000000,,2013-10-15 22:04:00,
2013-10-15 16:13:00,56.0,27.0,-100.00,WNW,300,5.0,11.0,33,0.00,,,0.07,550.000000,,2013-10-15 22:13:00,
2013-10-15 16:23:00,56.0,27.0,-100.00,WNW,300,5.0,11.0,33,0.00,,,0.07,550.000000,,2013-10-15 22:23:00,
2013-10-15 16:53:00,54.0,26.0,-100.00,WNW,282,4.0,13.0,34,0.00,,,0.04,403.000000,,2013-10-15 22:53:00,
2013-10-15 17:03:00,54.0,26.0,-100.00,WNW,282,4.0,13.0,34,0.00,,,0.04,403.000000,,2013-10-15 23:03:00,
2013-10-15 17:12:00,54.0,26.0,-100.00,WNW,282,4.0,13.0,34,0.00,,,0.04,403.000000,,2013-10-15 23:12:00,
2013-10-15 17:22:00,54.0,26.0,-100.00,WNW,282,4.0,13.0,34,0.00,,,0.04,403.000000,,2013-10-15 23:22:00,
2013-10-15 17:52:00,51.0,28.0,-100.00,WNW,290,2.0,10.0,40,0.00,,,0.03,89.000000,,2013-10-15 23:52:00,
2013-10-15 18:02:00,51.0,28.0,-100.00,WNW,290,2.0,10.0,40,0.00,,,0.03,89.000000,,2013-10-16 00:02:00,
2013-10-15 18:12:00,51.0,28.0,-100.00,WNW,290,2.0,10.0,40,0.00,,,0.03,89.000000,,2013-10-16 00:12:00,
2013-10-15 18:22:00,51.0,28.0,-100.00,WNW,290,2.0,10.0,40,0.00,,,0.03,89.000000,,2013-10-16 00:22:00,
2013-10-15 19:22:00,41.0,29.0,-100.00,West,266,1.0,6.0,62,0.00,,,0.01,29.000000,,2013-10-16 01:22:00,
2013-10-15 19:52:00,39.0,28.0,-100.00,WSW,258,2.0,4.0,65,0.00,,,0.00,0.000000,,2013-10-16 01:52:00,
2013-10-15 20:02:00,39.0,28.0,-100.00,WSW,258,2.0,4.0,65,0.00,,,0.00,0.000000,,2013-10-16 02:02:00,
2013-10-15 20:12:00,39.0,28.0,-100.00,WSW,258,2.0,4.0,65,0.00,,,0.00,0.000000,,2013-10-16 02:12:00,
2013-10-15 20:22:00,39.0,28.0,-100.00,WSW,258,2.0,4.0,65,0.00,,,0.00,0.000000,,2013-10-16 02:22:00,
2013-10-15 20:52:00,37.0,30.0,-100.00,West,260,2.0,5.0,76,0.00,,,0.00,0.000000,,2013-10-16 02:52:00,
2013-10-15 21:02:00,37.0,30.0,-100.00,West,260,2.0,5.0,76,0.00,,,0.00,0.000000,,2013-10-16 03:02:00,
2013-10-15 21:11:00,37.0,30.0,-100.00,West,260,2.0,5.0,76,0.00,,,0.00,0.000000,,2013-10-16 03:11:00,
2013-10-15 21:22:00,37.0,30.0,-100.00,West,260,2.0,5.0,76,0.00,,,0.00,0.000000,,2013-10-16 03:22:00,
2013-10-15 21:24:00,35.0,29.0,-100.00,West,266,2.0,5.0,77,0.00,,,0.00,0.000000,,2013-10-16 03:24:00,
2013-10-15 21:55:00,35.0,29.0,-100.00,West,266,2.0,5.0,77,0.00,,,0.00,0.000000,,2013-10-16 03:55:00,
2013-10-15 22:04:00,35.0,29.0,-100.00,West,266,2.0,5.0,77,0.00,,,0.00,0.000000,,2013-10-16 04:04:00,
2013-10-15 22:14:00,35.0,29.0,-100.00,West,266,2.0,5.0,77,0.00,,,0.00,0.000000,,2013-10-16 04:14:00,
2013-10-15 22:54:00,34.0,28.0,-100.00,West,267,2.0,6.0,79,0.00,,,0.00,0.000000,,2013-10-16 04:54:00,
2013-10-15 23:04:00,34.0,28.0,-100.00,West,267,2.0,6.0,79,0.00,,,0.00,0.000000,,2013-10-16 05:04:00,
2013-10-15 23:13:00,34.0,28.0,-100.00,West,267,2.0,6.0,79,0.00,,,0.00,0.000000,,2013-10-16 05:13:00,
2013-10-15 23:22:00,34.0,28.0,-100.00,West,267,2.0,6.0,79,0.00,,,0.00,0.000000,,2013-10-16 05:22:00,
2013-10-15 23:53:00,34.0,28.0,-100.00,West,280,0.0,4.0,79,0.00,,,0.00,0.000000,,2013-10-16 05:53:00,